Weather in Artigas

Uruguay     30°24′29″S   56°28′12″W
temp.,
°C
wind,
m/s
gust,
m/s
humid.,
%
clouds,
%
prec.,
mm/h
press.,
hPa
HPBL,
m
23 january, sat
sat2300:00+25ene713644 0.0 1016679
03:00+23e4107816 0.1 1014388
06:00+21e59850 0.0 1015388
09:00+26e57650 0.0 1017571
12:00+31ene44440 0.0 10141588
15:00+35e44333 0.0 10112306
18:00+33e334136 0.0 10091609
21:00+26e587265 1.4 1010204
24 january, sun
sun2400:00+28e6125273 0.0 1011684
03:00+25e5107146 0.0 1011361
06:00+22e48850 0.6 1011220
09:00+27nne35690 0.4 1011516
12:00+34ene33380 0.1 10102176
15:00+35nne333333 0.0 10072295
18:00+33n223778 0.0 1006758
21:00+26ene346967 1.7 100667
25 january, mon
mon2500:00+26ese37460 0.0 1007159
03:00+23n268944 2.8 1007212
06:00+23nnw349564 0.1 1007139
09:00+29n45592 0.7 1008496
12:00+35n44360 0.0 10062164
15:00+34nnw233739 0.0 10032041
18:00+31sse344970 0.6 1002150
21:00+24n358353 4.7 1004100
26 january, tue
tue2600:00+23ne6129352 6.6 1006363
03:00+23nne26949 1.7 1004186
06:00+22nne37910 0.2 1005184
09:00+26n468048 0.9 1006491
12:00+33nnw664855 0.1 10051490
15:00+32nnw774969 0.3 10021587
18:00+25wnw81289100 3.0 1001506
21:00+24n2291100 3.8 100157
27 january, wed
wed2700:00+23ne2491100 0.6 1001154
03:00+23nnw61293100 2.9 1001476
06:00+22nnw71297100 11.7 998722
09:00+25nw91386100 7.8 999986
12:00+25nw91385100 1.3 999949
15:00+27s9117078 5.9 1004887
18:00+24ssw697160 0.0 10011052
21:00+21sse338123 1.3 100279